^^
Your Local Weather - Clay, NY Station Historical Data
Daily Summary for January 22, 2018 Units:  Metric    English   Both
« Previous Day
Next Day »
Daily Weekly Monthly Yearly Custom
  High: Low: Average:
Temperature: 2.8 °C 1.2 °C 1.9 °C
Dew Point: 1.6 °C -0.6 °C 0.7 °C
Humidity: 93% 87% 91%
Wind Speed: 9.7km/h 0km/h 4.8km/h
Wind Gust: 19.3km/h - -
Wind- - ENE
Pressure: 1019.9 hPa 1007.3 hPa -
Precipitation: 1.78 mm    
Historical Graphs
 
 
Tabular Data for January 22, 2018
Time Temperature Dew Point Pressure Wind Wind Speed Wind Gust Humidity Rainfall Rate (Hourly) solar
00:10 1.4 °C -0.6 °C 1018.5 hPa East 1.6 km/h 3.2 km/h 87% 0 mm 0 W/m2
00:22 1.4 °C -0.4 °C 1018.5 hPa Calm   3.2 km/h 88% 0 mm 0 W/m2
00:28 1.4 °C -0.4 °C 1018.5 hPa Calm   3.2 km/h 88% 0 mm 0 W/m2
00:40 1.4 °C -0.4 °C 1018.2 hPa ENE 3.2 km/h 4.8 km/h 88% 0 mm 0 W/m2
00:46 1.4 °C -0.3 °C 1018.5 hPa ENE 4.8 km/h 4.8 km/h 88% 0 mm 0 W/m2
00:58 1.4 °C -0.3 °C 1018.5 hPa East 1.6 km/h 4.8 km/h 88% 0 mm 0 W/m2
01:04 1.4 °C -0.3 °C 1018.2 hPa East 1.6 km/h 3.2 km/h 88% 0 mm 0 W/m2
01:10 1.4 °C -0.3 °C 1018.2 hPa East 1.6 km/h 1.6 km/h 88% 0 mm 0 W/m2
01:16 1.4 °C -0.2 °C 1018.2 hPa East 3.2 km/h 3.2 km/h 89% 0 mm 0 W/m2
01:22 1.4 °C -0.2 °C 1018.2 hPa ENE 3.2 km/h 4.8 km/h 89% 0 mm 0 W/m2
01:28 1.4 °C -0.2 °C 1018.2 hPa ENE 1.6 km/h 4.8 km/h 89% 0 mm 0 W/m2
01:34 1.4 °C -0.2 °C 1018.2 hPa ENE 3.2 km/h 4.8 km/h 89% 0 mm 0 W/m2
01:40 1.4 °C -0.2 °C 1018.5 hPa ENE 3.2 km/h 3.2 km/h 89% 0 mm 0 W/m2
01:52 1.4 °C -0.2 °C 1018.5 hPa ENE 1.6 km/h 1.6 km/h 89% 0 mm 0 W/m2
02:10 1.3 °C -0.1 °C 1018.5 hPa ENE 1.6 km/h 1.6 km/h 90% 0 mm 0 W/m2
02:16 1.3 °C -0.2 °C 1018.5 hPa East 1.6 km/h 3.2 km/h 90% 0 mm 0 W/m2
02:22 1.3 °C -0.2 °C 1018.5 hPa NE 3.2 km/h 3.2 km/h 90% 0 mm 0 W/m2
02:28 1.3 °C -0.1 °C 1018.5 hPa ENE 1.6 km/h 6.4 km/h 90% 0 mm 0 W/m2
02:34 1.3 °C -0.1 °C 1018.5 hPa ENE 1.6 km/h 4.8 km/h 90% 0 mm 0 W/m2
02:40 1.3 °C -0.2 °C 1018.5 hPa East 3.2 km/h 3.2 km/h 90% 0 mm 0 W/m2
02:46 1.3 °C -0.2 °C 1018.5 hPa East 1.6 km/h 3.2 km/h 90% 0 mm 0 W/m2
02:58 1.3 °C -0.2 °C 1018.5 hPa East 1.6 km/h 3.2 km/h 90% 0 mm 0 W/m2
03:04 1.2 °C -0.2 °C 1018.5 hPa East 1.6 km/h 4.8 km/h 90% 0 mm 0 W/m2
03:10 1.2 °C -0.1 °C 1018.5 hPa East 1.6 km/h 1.6 km/h 91% 0 mm 0 W/m2
03:16 1.2 °C -0.1 °C 1018.2 hPa East 1.6 km/h 1.6 km/h 91% 0 mm 0 W/m2
03:22 1.2 °C -0.1 °C 1018.2 hPa Calm   4.8 km/h 91% 0 mm 0 W/m2
03:28 1.2 °C -0.2 °C 1018.2 hPa East 1.6 km/h 4.8 km/h 91% 0 mm 0 W/m2
03:34 1.2 °C -0.1 °C 1018.2 hPa ENE 1.6 km/h 3.2 km/h 91% 0 mm 0 W/m2
03:40 1.2 °C -0.1 °C 1018.2 hPa ENE 1.6 km/h 1.6 km/h 91% 0 mm 0 W/m2
03:46 1.2 °C -0.1 °C 1018.2 hPa ENE 1.6 km/h 3.2 km/h 91% 0 mm 0 W/m2
03:52 1.2 °C -0.1 °C 1018.2 hPa ENE 1.6 km/h 1.6 km/h 91% 0 mm 0 W/m2
03:58 1.2 °C -0.1 °C 1018.2 hPa ENE 1.6 km/h 1.6 km/h 91% 0 mm 0 W/m2
04:04 1.2 °C -0.2 °C 1018.2 hPa Calm   1.6 km/h 91% 0 mm 0 W/m2
04:10 1.2 °C -0.2 °C 1018.2 hPa ENE 1.6 km/h 1.6 km/h 91% 0 mm 0 W/m2
04:16 1.2 °C -0.1 °C 1018.2 hPa ENE 3.2 km/h 4.8 km/h 91% 0 mm 0 W/m2
04:22 1.2 °C -0.1 °C 1018.2 hPa East 1.6 km/h 3.2 km/h 91% 0 mm 0 W/m2
04:34 1.2 °C -0.2 °C 1018.2 hPa ENE 3.2 km/h 3.2 km/h 91% 0 mm 0 W/m2
04:40 1.2 °C -0.2 °C 1018.5 hPa East 3.2 km/h 3.2 km/h 91% 0 mm 0 W/m2
04:46 1.2 °C -0.2 °C 1018.2 hPa ENE 3.2 km/h 6.4 km/h 91% 0 mm 0 W/m2
04:52 1.2 °C -0.2 °C 1018.5 hPa ENE 3.2 km/h 3.2 km/h 91% 0 mm 0 W/m2
04:58 1.2 °C -0.1 °C 1018.5 hPa ENE 3.2 km/h 6.4 km/h 91% 0 mm 0 W/m2
05:04 1.2 °C -0.1 °C 1018.5 hPa ENE 3.2 km/h 6.4 km/h 91% 0 mm 0 W/m2
05:10 1.3 °C -0.1 °C 1018.5 hPa East 3.2 km/h 3.2 km/h 91% 0 mm 0 W/m2
05:16 1.3 °C -0.1 °C 1018.8 hPa East 3.2 km/h 8 km/h 91% 0 mm 0 W/m2
05:22 1.3 °C -0.1 °C 1018.8 hPa East 4.8 km/h 4.8 km/h 91% 0 mm 0 W/m2
05:28 1.3 °C 0 °C 1018.8 hPa East 3.2 km/h 8 km/h 91% 0 mm 0 W/m2
05:34 1.3 °C 0 °C 1018.8 hPa NE 3.2 km/h 4.8 km/h 91% 0 mm 0 W/m2
05:40 1.3 °C 0 °C 1019.2 hPa ENE 3.2 km/h 4.8 km/h 91% 0 mm 0 W/m2
05:46 1.3 °C -0.1 °C 1019.2 hPa ENE 1.6 km/h 4.8 km/h 91% 0 mm 0 W/m2
05:58 1.3 °C 0 °C 1019.2 hPa ENE 3.2 km/h 3.2 km/h 91% 0 mm 0 W/m2
06:04 1.3 °C 0 °C 1019.2 hPa ENE 3.2 km/h 3.2 km/h 91% 0 mm 0 W/m2
06:10 1.3 °C 0 °C 1018.8 hPa ENE 3.2 km/h 4.8 km/h 91% 0 mm 0 W/m2
06:16 1.3 °C 0 °C 1018.8 hPa ENE 4.8 km/h 9.7 km/h 91% 0 mm 0 W/m2
06:22 1.3 °C -0.1 °C 1018.5 hPa ESE 4.8 km/h 11.3 km/h 91% 0 mm 0 W/m2
06:28 1.3 °C -0.1 °C 1018.5 hPa SE 4.8 km/h 11.3 km/h 91% 0 mm 0 W/m2
06:34 1.3 °C -0.1 °C 1018.5 hPa ENE 3.2 km/h 6.4 km/h 91% 0 mm 0 W/m2
06:40 1.3 °C 0.1 °C 1018.5 hPa ESE 4.8 km/h 4.8 km/h 92% 0 mm 0 W/m2
06:46 1.3 °C 0.1 °C 1018.8 hPa SSE 3.2 km/h 4.8 km/h 92% 0 mm 0 W/m2
06:52 1.2 °C 0.1 °C 1018.8 hPa ESE 3.2 km/h 3.2 km/h 92% 0 mm 0 W/m2
06:58 1.2 °C 0.1 °C 1018.8 hPa ESE 1.6 km/h 3.2 km/h 92% 0 mm 0 W/m2
07:04 1.2 °C 0.1 °C 1019.2 hPa ESE 1.6 km/h 3.2 km/h 92% 0 mm 0 W/m2
07:10 1.2 °C 0.1 °C 1019.2 hPa Calm   4.8 km/h 92% 0 mm 0 W/m2
07:16 1.2 °C 0.1 °C 1019.2 hPa ENE 1.6 km/h 4.8 km/h 92% 0 mm 0 W/m2
07:22 1.2 °C 0.1 °C 1019.2 hPa ENE 1.6 km/h 3.2 km/h 92% 0 mm 0 W/m2
07:28 1.2 °C 0.1 °C 1019.2 hPa NE 1.6 km/h 3.2 km/h 92% 0 mm 0 W/m2
07:34 1.2 °C 0.1 °C 1019.5 hPa NE 1.6 km/h 1.6 km/h 92% 0 mm 0 W/m2
07:40 1.2 °C 0.1 °C 1019.5 hPa NE 1.6 km/h 3.2 km/h 92% 0 mm 0 W/m2
07:52 1.2 °C 0.1 °C 1019.5 hPa ENE 3.2 km/h 4.8 km/h 92% 0 mm 7 W/m2
07:58 1.3 °C 0.1 °C 1019.5 hPa NNE 3.2 km/h 4.8 km/h 92% 0 mm 9 W/m2
08:04 1.3 °C 0.1 °C 1019.5 hPa ESE 4.8 km/h 6.4 km/h 92% 0 mm 9 W/m2
08:10 1.3 °C 0.2 °C 1019.5 hPa ENE 3.2 km/h 3.2 km/h 92% 0 mm 11 W/m2
08:16 1.3 °C 0.2 °C 1019.5 hPa East 3.2 km/h 11.3 km/h 92% 0 mm 12 W/m2
08:28 1.4 °C 0.2 °C 1019.5 hPa ENE 4.8 km/h 12.9 km/h 92% 0 mm 26 W/m2
08:34 1.4 °C 0.3 °C 1019.5 hPa ENE 4.8 km/h 4.8 km/h 92% 0 mm 32 W/m2
08:40 1.5 °C 0.3 °C 1019.5 hPa East 4.8 km/h 12.9 km/h 92% 0 mm 33 W/m2
08:46 1.5 °C 0.3 °C 1019.2 hPa East 4.8 km/h 12.9 km/h 92% 0 mm 40 W/m2
08:58 1.6 °C 0.4 °C 1019.5 hPa ENE 6.4 km/h 12.9 km/h 92% 0 mm 53 W/m2
09:04 1.7 °C 0.5 °C 1019.5 hPa NE 4.8 km/h 8 km/h 92% 0 mm 54 W/m2
09:10 1.8 °C 0.4 °C 1019.9 hPa East 4.8 km/h 4.8 km/h 91% 0 mm 46 W/m2
09:16 1.8 °C 0.4 °C 1019.9 hPa ENE 4.8 km/h 8 km/h 91% 0 mm 53 W/m2
09:28 1.9 °C 0.6 °C 1019.5 hPa East 4.8 km/h 6.4 km/h 91% 0 mm 65 W/m2
09:34 1.9 °C 0.6 °C 1019.5 hPa South 3.2 km/h 4.8 km/h 91% 0 mm 74 W/m2
09:40 2 °C 0.7 °C 1019.5 hPa East 3.2 km/h 3.2 km/h 91% 0 mm 67 W/m2
09:46 2.1 °C 0.6 °C 1019.5 hPa ESE 3.2 km/h 3.2 km/h 90% 0 mm 88 W/m2
09:58 2.2 °C 0.8 °C 1019.2 hPa East 3.2 km/h 12.9 km/h 90% 0 mm 100 W/m2
10:04 2.3 °C 0.8 °C 1019.5 hPa East 4.8 km/h 4.8 km/h 90% 0 mm 67 W/m2
10:10 2.3 °C 0.8 °C 1019.5 hPa East 3.2 km/h 3.2 km/h 90% 0 mm 49 W/m2
10:16 2.3 °C 0.7 °C 1019.5 hPa East 3.2 km/h 11.3 km/h 89% 0 mm 42 W/m2
10:22 2.2 °C 0.6 °C 1019.2 hPa ESE 6.4 km/h 6.4 km/h 89% 0 mm 46 W/m2
10:28 2.2 °C 0.6 °C 1019.2 hPa East 4.8 km/h 8 km/h 89% 0 mm 53 W/m2
10:34 2.3 °C 0.7 °C 1019.2 hPa ESE 6.4 km/h 6.4 km/h 89% 0 mm 46 W/m2
10:40 2.3 °C 0.7 °C 1018.8 hPa East 4.8 km/h 8 km/h 89% 0 mm 49 W/m2
10:46 2.3 °C 0.6 °C 1019.2 hPa ESE 4.8 km/h 9.7 km/h 88% 0 mm 49 W/m2
10:52 2.4 °C 0.6 °C 1019.2 hPa ENE 4.8 km/h 8 km/h 88% 0 mm 46 W/m2
10:58 2.4 °C 0.7 °C 1018.8 hPa East 6.4 km/h 12.9 km/h 88% 0 mm 49 W/m2
11:06 2.4 °C 0.6 °C 1018.5 hPa ENE 4.8 km/h 12.9 km/h 88% 0 mm 60 W/m2
11:12 2.4 °C 0.7 °C 1018.5 hPa ENE 4.8 km/h 6.4 km/h 88% 0 mm 65 W/m2
11:18 2.4 °C 0.5 °C 1018.2 hPa NE 8 km/h 11.3 km/h 87% 0 mm 70 W/m2
11:26 2.4 °C 0.5 °C 1018.2 hPa East 6.4 km/h 8 km/h 87% 0 mm 69 W/m2
11:32 2.4 °C 0.7 °C 1017.8 hPa ESE 6.4 km/h 12.9 km/h 88% 0 mm 84 W/m2
11:38 2.6 °C 0.8 °C 1017.8 hPa ENE 8 km/h 12.9 km/h 88% 0 mm 72 W/m2
11:44 2.6 °C 0.7 °C 1017.8 hPa ENE 6.4 km/h 8 km/h 87% 0 mm 62 W/m2
11:50 2.6 °C 0.7 °C 1017.5 hPa ENE 6.4 km/h 12.9 km/h 87% 0 mm 58 W/m2
11:56 2.7 °C 0.7 °C 1017.5 hPa ENE 8 km/h 12.9 km/h 87% 0 mm 54 W/m2
12:02 2.7 °C 0.7 °C 1017.5 hPa SE 6.4 km/h 6.4 km/h 87% 0 mm 28 W/m2
12:08 2.7 °C 0.7 °C 1017.2 hPa ENE 6.4 km/h 8 km/h 87% 0 mm 35 W/m2
12:14 2.7 °C 0.7 °C 1016.8 hPa East 6.4 km/h 6.4 km/h 87% 0 mm 47 W/m2
12:20 2.7 °C 0.8 °C 1016.5 hPa East 6.4 km/h 6.4 km/h 87% 0 mm 65 W/m2
12:26 2.8 °C 0.8 °C 1016.5 hPa East 6.4 km/h 6.4 km/h 87% 0 mm 56 W/m2
12:32 2.7 °C 0.8 °C 1016.5 hPa ENE 4.8 km/h 8 km/h 87% 0 mm 42 W/m2
12:38 2.7 °C 0.7 °C 1016.1 hPa NE 6.4 km/h 12.9 km/h 87% 0 mm 51 W/m2
12:44 2.6 °C 0.8 °C 1016.1 hPa East 6.4 km/h 11.3 km/h 88% 0 mm 42 W/m2
12:50 2.6 °C 0.8 °C 1015.8 hPa ENE 6.4 km/h 12.9 km/h 88% 0 mm 42 W/m2
12:56 2.6 °C 0.8 °C 1015.8 hPa ENE 6.4 km/h 12.9 km/h 88% 0 mm 33 W/m2
13:02 2.6 °C 0.8 °C 1015.8 hPa ENE 6.4 km/h 16.1 km/h 88% 0 mm 30 W/m2
13:08 2.6 °C 0.8 °C 1015.8 hPa East 8 km/h 16.1 km/h 88% 0 mm 33 W/m2
13:14 2.6 °C 0.8 °C 1015.5 hPa ENE 8 km/h 12.9 km/h 88% 0 mm 28 W/m2
13:20 2.6 °C 0.8 °C 1015.5 hPa ENE 8 km/h 8 km/h 88% 0 mm 25 W/m2
13:26 2.5 °C 0.9 °C 1015.1 hPa ENE 8 km/h 8 km/h 89% 0 mm 33 W/m2
13:32 2.5 °C 0.9 °C 1015.1 hPa East 8 km/h 9.7 km/h 89% 0 mm 25 W/m2
13:38 2.4 °C 0.9 °C 1014.8 hPa ENE 8 km/h 11.3 km/h 90% 0 mm 60 W/m2
13:44 2.4 °C 0.9 °C 1014.8 hPa East 8 km/h 11.3 km/h 90% 0 mm 42 W/m2
13:50 2.4 °C 0.9 °C 1014.4 hPa ENE 8 km/h 14.5 km/h 90% 0 mm 42 W/m2
13:56 2.4 °C 0.9 °C 1014.4 hPa ENE 8 km/h 14.5 km/h 90% 1.52 mm 54 W/m2
14:02 2.3 °C 1 °C 1014.4 hPa NE 8 km/h 8 km/h 91% 1.52 mm 33 W/m2
14:08 2.3 °C 1 °C 1014.4 hPa SE 8 km/h 11.3 km/h 91% 1.02 mm 32 W/m2
14:14 2.3 °C 1 °C 1014.4 hPa ENE 8 km/h 8 km/h 91% 0 mm 30 W/m2
14:20 2.3 °C 0.9 °C 1014.4 hPa ENE 6.4 km/h 6.4 km/h 91% 0 mm 19 W/m2
14:26 2.3 °C 0.9 °C 1014.4 hPa East 4.8 km/h 6.4 km/h 91% 0 mm 18 W/m2
14:32 2.2 °C 0.9 °C 1014.4 hPa East 4.8 km/h 4.8 km/h 91% 0 mm 16 W/m2
14:38 2.2 °C 0.8 °C 1014.1 hPa East 4.8 km/h 4.8 km/h 91% 0 mm 49 W/m2
14:44 2.2 °C 0.8 °C 1013.8 hPa ENE 8 km/h 11.3 km/h 91% 0 mm 54 W/m2
14:50 2.1 °C 0.9 °C 1013.4 hPa East 9.7 km/h 16.1 km/h 92% 0 mm 39 W/m2
14:56 2.2 °C 1 °C 1013.8 hPa ESE 8 km/h 16.1 km/h 92% 1.27 mm 79 W/m2
15:02 2.2 °C 1 °C 1013.8 hPa East 8 km/h 8 km/h 92% 1.27 mm 60 W/m2
15:08 2.2 °C 1.1 °C 1013.8 hPa NE 6.4 km/h 8 km/h 92% 1.02 mm 65 W/m2
15:14 2.2 °C 1.1 °C 1013.4 hPa East 6.4 km/h 11.3 km/h 92% 1.02 mm 54 W/m2
15:20 2.2 °C 1.1 °C 1013.8 hPa East 6.4 km/h 6.4 km/h 92% 1.02 mm 32 W/m2
15:26 2.2 °C 1.1 °C 1013.8 hPa East 4.8 km/h 12.9 km/h 92% 1.02 mm 23 W/m2
15:32 2.2 °C 1 °C 1013.4 hPa ESE 4.8 km/h 4.8 km/h 92% 0 mm 28 W/m2
15:38 2.2 °C 1 °C 1013.4 hPa ESE 4.8 km/h 8 km/h 92% 0 mm 49 W/m2
15:44 2.2 °C 1.1 °C 1013.8 hPa ENE 6.4 km/h 8 km/h 92% 0 mm 47 W/m2
15:50 2.3 °C 1.1 °C 1013.8 hPa ESE 4.8 km/h 8 km/h 92% 0 mm 32 W/m2
15:56 2.3 °C 1.1 °C 1013.8 hPa ENE 4.8 km/h 8 km/h 92% 0 mm 21 W/m2
16:02 2.3 °C 1.1 °C 1013.4 hPa East 6.4 km/h 12.9 km/h 92% 0 mm 28 W/m2
16:08 2.2 °C 1.2 °C 1013.4 hPa East 6.4 km/h 12.9 km/h 93% 0 mm 23 W/m2
16:14 2.2 °C 1.2 °C 1013.4 hPa East 6.4 km/h 11.3 km/h 93% 0 mm 26 W/m2
16:20 2.2 °C 1.2 °C 1013.4 hPa ESE 8 km/h 8 km/h 93% 0 mm 18 W/m2
16:26 2.2 °C 1.2 °C 1013.4 hPa East 8 km/h 19.3 km/h 93% 0 mm 12 W/m2
16:32 2.1 °C 1.1 °C 1013.4 hPa ENE 8 km/h 11.3 km/h 93% 0 mm 18 W/m2
16:38 2.2 °C 1.2 °C 1013.1 hPa ENE 6.4 km/h 11.3 km/h 93% 0 mm 16 W/m2
16:44 2.1 °C 1.1 °C 1012.8 hPa East 6.4 km/h 6.4 km/h 93% 0 mm 12 W/m2
16:50 2.1 °C 1.1 °C 1012.8 hPa ENE 8 km/h 8 km/h 93% 0 mm 5 W/m2
16:56 2.1 °C 1.1 °C 1012.8 hPa East 8 km/h 8 km/h 93% 0 mm 0 W/m2
17:02 2 °C 1 °C 1012.8 hPa ENE 6.4 km/h 11.3 km/h 93% 0 mm 0 W/m2
17:08 2.1 °C 1.1 °C 1012.8 hPa ENE 4.8 km/h 11.3 km/h 93% 0 mm 0 W/m2
17:14 2.1 °C 1.1 °C 1012.8 hPa NE 4.8 km/h 8 km/h 93% 0 mm 0 W/m2
17:20 2.1 °C 1.1 °C 1013.1 hPa NE 3.2 km/h 4.8 km/h 93% 0 mm 0 W/m2
17:26 2.1 °C 1.1 °C 1012.8 hPa NE 3.2 km/h 4.8 km/h 93% 0 mm 0 W/m2
17:32 2.1 °C 1.1 °C 1012.8 hPa ENE 4.8 km/h 6.4 km/h 93% 0 mm 0 W/m2
17:38 2.1 °C 1.1 °C 1012.8 hPa NE 6.4 km/h 6.4 km/h 93% 0 mm 0 W/m2
17:44 2.1 °C 1.1 °C 1012.8 hPa NE 6.4 km/h 6.4 km/h 93% 0 mm 0 W/m2
17:50 2.1 °C 1.1 °C 1012.4 hPa East 4.8 km/h 8 km/h 93% 0 mm 0 W/m2
17:56 2.1 °C 1.1 °C 1012.4 hPa ENE 6.4 km/h 16.1 km/h 93% 0 mm 0 W/m2
18:02 2.1 °C 1.1 °C 1012.4 hPa ENE 6.4 km/h 8 km/h 93% 0 mm 0 W/m2
18:08 2.1 °C 1.1 °C 1012.4 hPa ENE 6.4 km/h 8 km/h 93% 0 mm 0 W/m2
18:14 2.1 °C 1.1 °C 1012.4 hPa East 8 km/h 8 km/h 93% 0 mm 0 W/m2
18:20 2.1 °C 1.1 °C 1012.4 hPa East 8 km/h 11.3 km/h 93% 0 mm 0 W/m2
18:32 2.1 °C 1.1 °C 1012.4 hPa ENE 8 km/h 12.9 km/h 93% 0 mm 0 W/m2
18:38 2.1 °C 1.1 °C 1012.4 hPa East 6.4 km/h 12.9 km/h 93% 0 mm 0 W/m2
18:44 2.1 °C 1.1 °C 1012.1 hPa ESE 8 km/h 11.3 km/h 93% 0 mm 0 W/m2
18:50 2.2 °C 1.2 °C 1012.1 hPa ENE 8 km/h 8 km/h 93% 0 mm 0 W/m2
18:56 2.2 °C 1.2 °C 1012.1 hPa East 6.4 km/h 8 km/h 93% 0 mm 0 W/m2
19:03 2.2 °C 1.2 °C 1011.7 hPa ENE 6.4 km/h 12.9 km/h 93% 0 mm 0 W/m2
19:08 2.2 °C 1.2 °C 1011.7 hPa East 8 km/h 12.9 km/h 93% 0 mm 0 W/m2
19:14 2.3 °C 1.3 °C 1011.7 hPa ENE 8 km/h 12.9 km/h 93% 0 mm 0 W/m2
19:20 2.2 °C 1.2 °C 1011.7 hPa East 6.4 km/h 6.4 km/h 93% 0 mm 0 W/m2
19:26 2.3 °C 1.3 °C 1011.4 hPa ENE 6.4 km/h 11.3 km/h 93% 0 mm 0 W/m2
19:44 2.4 °C 1.4 °C 1011.4 hPa ENE 6.4 km/h 9.7 km/h 93% 0 mm 0 W/m2
19:50 2.4 °C 1.4 °C 1011.1 hPa ENE 8 km/h 11.3 km/h 93% 0 mm 0 W/m2
19:56 2.5 °C 1.5 °C 1011.4 hPa ENE 6.4 km/h 12.9 km/h 93% 0 mm 0 W/m2
20:14 2.6 °C 1.6 °C 1011.1 hPa ENE 6.4 km/h 11.3 km/h 93% 0 mm 0 W/m2
20:20 2.6 °C 1.6 °C 1011.1 hPa East 8 km/h 8 km/h 93% 0 mm 0 W/m2
20:26 2.6 °C 1.6 °C 1011.1 hPa ENE 8 km/h 12.9 km/h 93% 0 mm 0 W/m2
20:38 2.6 °C 1.6 °C 1011.1 hPa ENE 6.4 km/h 11.3 km/h 93% 0 mm 0 W/m2
20:44 2.5 °C 1.5 °C 1011.1 hPa ENE 4.8 km/h 6.4 km/h 93% 0 mm 0 W/m2
20:50 2.5 °C 1.5 °C 1010.7 hPa ENE 3.2 km/h 8 km/h 93% 0 mm 0 W/m2
20:56 2.5 °C 1.5 °C 1010.7 hPa ENE 4.8 km/h 12.9 km/h 93% 0 mm 0 W/m2
21:02 2.6 °C 1.6 °C 1010.7 hPa ENE 4.8 km/h 6.4 km/h 93% 0 mm 0 W/m2
21:14 2.3 °C 1.3 °C 1010.4 hPa ENE 4.8 km/h 6.4 km/h 93% 0 mm 0 W/m2
21:20 2.5 °C 1.5 °C 1010.7 hPa ENE 3.2 km/h 4.8 km/h 93% 0 mm 0 W/m2
21:26 2.6 °C 1.6 °C 1010.7 hPa ENE 3.2 km/h 8 km/h 93% 0 mm 0 W/m2
21:38 2.6 °C 1.6 °C 1010.4 hPa ENE 6.4 km/h 8 km/h 93% 0 mm 0 W/m2
21:44 2.4 °C 1.4 °C 1010.4 hPa ESE 6.4 km/h 8 km/h 93% 0 mm 0 W/m2
21:50 2.5 °C 1.5 °C 1010 hPa East 6.4 km/h 6.4 km/h 93% 0 mm 0 W/m2
21:56 2.4 °C 1.4 °C 1010 hPa ENE 4.8 km/h 9.7 km/h 93% 0 mm 0 W/m2
22:02 2.4 °C 1.4 °C 1010 hPa NE 4.8 km/h 4.8 km/h 93% 0 mm 0 W/m2
22:14 2.5 °C 1.5 °C 1009.7 hPa East 6.4 km/h 8 km/h 93% 0 mm 0 W/m2
22:20 2.5 °C 1.5 °C 1009.7 hPa NE 6.4 km/h 9.7 km/h 93% 0 mm 0 W/m2
22:26 2.6 °C 1.6 °C 1009.7 hPa ENE 6.4 km/h 9.7 km/h 93% 0 mm 0 W/m2
22:32 2.6 °C 1.6 °C 1009.7 hPa East 4.8 km/h 8 km/h 93% 0 mm 0 W/m2
22:38 2.6 °C 1.6 °C 1009.7 hPa ENE 4.8 km/h 8 km/h 93% 0 mm 0 W/m2
22:50 2.6 °C 1.6 °C 1009.7 hPa NE 4.8 km/h 6.4 km/h 93% 0 mm 0 W/m2
22:56 2.6 °C 1.6 °C 1009 hPa East 6.4 km/h 11.3 km/h 93% 0 mm 0 W/m2
23:02 2.5 °C 1.5 °C 1009 hPa NE 6.4 km/h 8 km/h 93% 0 mm 0 W/m2
23:08 2.7 °C 1.5 °C 1009 hPa East 4.8 km/h 9.7 km/h 92% 0 mm 0 W/m2
23:14 2.6 °C 1.4 °C 1008.7 hPa ENE 4.8 km/h 6.4 km/h 92% 0 mm 0 W/m2
23:20 2.6 °C 1.4 °C 1008.7 hPa ENE 4.8 km/h 4.8 km/h 92% 0 mm 0 W/m2
23:26 2.6 °C 1.4 °C 1008.4 hPa ENE 6.4 km/h 6.4 km/h 92% 0 mm 0 W/m2
23:32 2.6 °C 1.4 °C 1008.4 hPa East 4.8 km/h 9.7 km/h 92% 0 mm 0 W/m2
23:44 2.6 °C 1.4 °C 1008 hPa NE 3.2 km/h 3.2 km/h 92% 0 mm 0 W/m2
23:50 2.5 °C 1.3 °C 1007.7 hPa ENE 1.6 km/h 3.2 km/h 92% 0 mm 0 W/m2
23:56 2.6 °C 1.4 °C 1007.3 hPa NE 1.6 km/h 3.2 km/h 92% 0 mm 0 W/m2
Country Meadow, Clay, NY, USA
Compliments of Weather Underground - 2 mb